www.pogodaiklimat.ru
ПОГОДА в Жуковке

Архив погоды в Жуковке (Брянская область, Россия)

Время
(UTC), дата
18 11.07
21 11.07
00 12.07
03 12.07
06 12.07
09 12.07
12 12.07
15 12.07
18 12.07
21 12.07
00 13.07
03 13.07
06 13.07
09 13.07
12 13.07
15 13.07
18 13.07
21 13.07
00 14.07
03 14.07
06 14.07
09 14.07
12 14.07
15 14.07
18 14.07
21 14.07
00 15.07
03 15.07
06 15.07
09 15.07
12 15.07
15 15.07
18 15.07
21 15.07
00 16.07
03 16.07
06 16.07
09 16.07
12 16.07
15 16.07
18 16.07
21 16.07
00 17.07
03 17.07
06 17.07
09 17.07
12 17.07
15 17.07
18 17.07
21 17.07
00 18.07
03 18.07
06 18.07
09 18.07
12 18.07
15 18.07
Ветер
(напр.,м/с)
Видим. Явления Облачность Т
(С)
Тd
(С)
f
(%)
Тe
(С)
Тes
(С)
Комфортность P
(гПа)
Po
(гПа)
Тmin
(С)
Tmax
(С)
R
(мм)
R24
(мм)
S
(см)
В 2 10 км 3/0
[Ci fib]
+22.5 +15.6 65 +26 +26 жарко 1020.1 999.7 +29.0
штиль 0 10 км 1/0
[Ci fib]
+18.8 +14.5 76 +20 +20 1020.5 999.9
ЮВ 1 10 км 4/0
[Ci fib]
+17.0 +13.0 77 +18 +18 1020.3 999.5
ЮВ 1 10 км 4/0
[Ac trans Ci fib]
+17.8 +12.6 72 +19 +20 1019.8 999.1 +16.0
ЮВ 4 10 км 6/0
[Ac trans Ci fib]
+23.9 +12.8 50 +26 +30 жарко 1018.6 998.3 +16.0
ЮВ 4 20 км 3/0
[Ci fib]
+28.0 +15.6 47 +31 +41 душно 1017.9 997.9
ЮВ 5 20 км 3/0
[Ci fib]
+29.7 +16.1 44 +33 +39 душно 1016.4 996.5
Ю 2 20 км 8/0
[Ac trans Ci fib]
+28.5 +17.5 51 +33 +35 очень душно 1015.3 995.4
З 1 {10} 10 км в посл. час гроза {ливн. дождь} 9/6 600 м
[Cb cap Ac trans]
+22.9 +18.0 74 +28 +28 душно 1015.1 994.9 +30.1 0.0
Ю 2 4000 м дымка 8/5 600 м
[Cb cap Ac trans]
+19.5 +17.7 89 +22 +22 комфорт 1015.4 994.9
штиль 0 4000 м дымка 8/3 600 м
[Cb cap Ac trans Ci fib]
+18.4 +16.6 89 +19 +19 1015.3 994.7
штиль 0 4000 м дымка 6/3 600 м
[Cb cap Ac trans]
+20.6 +18.8 89 +24 +25 комфорт 1014.7 994.3 +17.7 0.0
Ю 1 10 км 3/0
[Ci fib]
+25.3 +19.0 68 +30 +39 душно 1014.6 994.6 +17.7
Ю 2 20 км ясно +29.2 +19.9 57 +35 +51 опасность солнечного удара 1013.7 993.9
Ю 3 20 км 4/3 1000 м
[Cu hum Ci fib]
+31.3 +19.8 50 +37 +44 очень душно 1012.7 993.0
ЮЗ 2 20 км 8/4 600 м
[Cb cap Ci fib]
+29.3 +20.4 59 +36 +38 очень душно 1012.2 992.5
ЮВ 1 10 км 9/0
[Ac lent Ci fib]
+25.6 +20.1 72 +32 +32 очень душно 1012.3 992.3 +31.7
ЮВ 1 10 км 4/3 600 м
[Cb cap Ci fib]
+19.9 +16.9 83 +24 +24 комфорт 1012.5 992.1
СВ 2 {11} 10 км {ливн. дождь} 10/5 600 м
[Cb cap Ac und]
+20.6 +17.6 83 +25 +25 комфорт 1014.5 994.1
Ю 3 10 км 9/4 600 м
[Cb cap Ac trans]
+20.7 +17.5 82 +25 +25 комфорт 1013.1 992.7 +19.7 0.0
Ю 3 10 км 1/0
[Ci fib]
+25.7 +18.4 64 +30 +37 душно 1012.9 992.8 +19.7 0.0
ЮЗ 1 20 км 3/0
[Ci fib]
+30.7 +18.8 49 +36 +53 опасность солнечного удара 1012.7 993.0
СЗ 3 20 км 4/3 1000 м
[Cu hum Ci fib]
+32.6 +17.9 42 +37 +44 очень душно 1012.2 992.6
С 2 20 км 3/3 1000 м
[Cu med, cong Ci fib]
+31.4 +19.5 49 +37 +40 очень душно 1011.8 992.2
З 11-22 {22} 10 км гроза без осадков 10/10 300 м
[Cb cap]
+25.0 +16.0 57 +28 +28 жарко 1015.9 995.7 +32.9
ЮВ 3 {22} 4000 м гроза без осадков {ливн. дождь} 10/10 600 м
[Cb cap]
+18.8 +17.2 90 +20 +20 1013.1 992.6
З 2 4000 м дымка {гроза, ливн. дождь} 9/8 600 м
[Cb cap Ac trans]
+18.6 +17.0 90 +20 +20 1014.1 993.6
З 2 4000 м дымка 9/4 600 м
[Cb cap Ac trans]
+18.7 +16.9 89 +20 +21 1015.0 994.4 +18.6 2
СЗ 1 1000 м в посл. час туман 10/10 300 м
[Cb cap]
+20.5 +19.0 91 +26 +26 душно 1015.5 995.1 +18.6 2
С 2 20 км 6/4 1000 м
[Cu med, cong Ci fib]
+27.5 +19.4 61 +33 +42 очень душно 1014.8 994.9
СЗ 2 20 км 4/3 1000 м
[Cu med, cong Ci fib]
+30.2 +17.0 45 +34 +42 очень душно 1014.3 994.5
СЗ 1 20 км 5/3 1000 м
[Cu med, cong Ac trans]
+29.8 +17.6 48 +34 +36 очень душно 1013.8 994.1
СВ 1 {12} 4000 м гроза, ливневой дождь 10/10 600 м
[Cb cap]
+20.2 +18.7 91 +25 +25 комфорт 1015.7 995.3 +30.8 28
штиль 0 1000 м дымка {гроза, ливн. дождь} 6/0
[Ac trans]
+19.6 +18.4 93 +22 +22 комфорт 1015.8 995.3
штиль 0 1000 м дымка {гроза, ливн. дождь} 4/0
[Ac trans]
+18.0 +16.9 93 +18 +18 1015.9 995.3
штиль 0 1000 м дымка 3/0
[Ci fib]
+18.7 +17.8 95 +20 +21 1016.1 995.5 +16.6 28
СВ 1 10 км ясно +25.5 +19.4 69 +31 +40 очень душно 1016.2 996.1 +16.6 0.0
С 3 20 км 4/3 1000 м
[Cu med, cong Ci fib]
+28.9 +18.8 54 +34 +43 очень душно 1016.0 996.1
СЗ 2 20 км 4/4 1000 м
[Cu med, cong]
+30.6 +17.0 44 +34 +42 очень душно 1015.6 995.9
С 2 20 км 3/3 1000 м
[Cu med, cong]
+30.2 +17.2 46 +34 +37 очень душно 1015.4 995.7
штиль 0 10 км 3/0
[Ac trans]
+24.3 +21.0 82 +31 +31 очень душно 1015.6 995.5 +30.8
штиль 0 4000 м дымка 3/0
[Ac trans]
+20.6 +19.3 92 +24 +24 комфорт 1016.8 996.4
С 1 2000 м дымка ясно +18.9 +17.9 94 +21 +21 комфорт 1017.1 996.5
штиль 0 500 м туман, небо видно ясно +19.3 +18.3 94 +21 +22 комфорт 1017.3 996.8 +17.5
В 2 10 км {туман} ясно +27.0 +19.4 63 +33 +40 очень душно 1017.5 997.5 +17.5
ЮЗ 1 10 км 6/6 1000 м
[Cb cap]
+30.4 +18.5 49 +35 +43 очень душно 1017.0 997.2
ЮЗ 2 20 км 3/1 1000 м
[Cu hum Ci fib]
+32.2 +15.3 36 +34 +45 душно 1015.9 996.2
ЮЗ 2 20 км 6/4 600 м
[Cb cap Ci fib]
+31.1 +17.0 43 +35 +37 очень душно 1014.9 995.2
ЮВ 1 10 км 4/0
[Ac trans Ci fib]
+25.3 +22.0 82 +33 +33 очень душно 1015.8 995.7 +32.5
СВ 1 4000 м дымка 3/0
[Ci fib]
+22.4 +20.7 90 +29 +29 очень душно 1016.0 995.7
штиль 0 2000 м дымка ясно +19.9 +18.8 93 +23 +23 комфорт 1016.4 995.9
СВ 1 1000 м в посл. час туман ясно +20.5 +19.6 95 +26 +27 душно 1016.5 996.1 +19.0
СВ 1 10 км {туман} 3/0
[Ci fib]
+26.9 +20.4 68 +33 +42 очень душно 1015.9 995.9 +19.0
СЗ 4 {12} 4000 м гроза, ливневой дождь 10/10 300 м
[Cb cap]
+20.4 +18.6 89 +24 +24 комфорт 1016.7 996.2
СВ 1 10 км {гроза, ливн. дождь} 8/5 1000 м
[Cu med, cong Ci fib]
+23.9 +18.8 73 +29 +35 душно 1015.4 995.3
С 3 20 км 6/4 1000 м
[Cu med, cong Ci fib]
+25.9 +17.7 61 +30 +32 душно 1014.9 994.9 20
Местоположение метеостанции Жуковка (Брянская область, Россия): широта 53.53 долгота 33.75 высота над уровнем моря 177 м.
В архиве по умолчанию представлена погода в Жуковке за последнюю неделю. Архивные данные за месяц целиком и за предыдущие месяцы, начиная с января 2011 года, Вы можете получить, выбрав интересующий диапазон дат из раскрывающегося списка и нажав кнопку "Найти!".
*Определитесь, кто Вы:
Внимание! Время в таблицах - всемирное. Для получения местного времени необходимо прибавить поправку, которая равна 3 ч.
Некоторые строки с данными для отдельных станций могут быть выделены курсивом. Это означает, что фактические данные отсутствуют по различным причинам, а приведенные значения являются расчетными модельными данными для данного пункта наблюдений.
Смотрите также архив погоды в соседних городах и на ближайших метеорологических станциях:
Партнеры нашего сайта:      
Пояснения к столбцам:
  • Ветер - указаны скорость ветра в м/с - средняя за 10 мин, порывы в срок и между сроками (в фигурных скобках) и направление, откуда дует ветер: С - северный,
  • СВ - северо-восточный, В - восточный, ЮВ - юго-восточный, Ю - южный, ЮЗ - юго-западный, З - западный, СЗ - северо-западный.
  • Видимость - горизонтальная дальность видимости в метрах или километрах. При видимости от 1 до 10 км при отсутствии осадков обычно наблюдается дымка, при ухудшении видимости до 1 км и менее - туман. В сухую погоду видимость может ухудшаться дымом, пылью или мглою.
  • Явления - указаны атмосферные явления, наблюдавшиеся в срок или в последний час перед сроком; фигурными скобками обозначены явления, наблюдавшиеся между сроками (за 1-3 часа до срока); квадратными скобками обозначены град или гололедные отложения с указанием их диаметра в мм.
  • Облачность - указаны через наклонную черту общая и нижняя облачность в баллах и высота нижней границы облаков в метрах; квадратными скобками обозначены формы облаков: Ci - перистые, Cs - перисто-слоистые, Cc - перисто-кучевые, Ac - высококучевые, As - высокослоистые, Sc - слоисто-кучевые, Ns - слоисто-дождевые, Cu - кучевые, Cb - кучево-дождевые. Подробнее классификацию облаков см. в Атласе облаков (PDF).
  • T - Температура воздуха - температура, измеренная на высоте 2 м над землей.
  • Td - Температура точки росы - температура, при понижении до которой содержащийся в воздухе водяной пар достигнет насыщения.
  • f - Относительная влажность воздуха - влажноcть воздуха, измеренная на высоте 2 м над землей.
  • Te - Эффективная температура - температура, которую ощущает одетый по сезону человек в тени. Характеристика душности погоды. При расчете учитывается влияние влажности воздуха и скорости ветра на теплоощущения человека.
  • Tes - Эффективная температура на солнце - температура, которую ощущает человек, с поправкой на солнечный нагрев. Характеристика знойности погоды. Зависит от высоты солнца над горизонтом, облачности и скорости ветра. Ночью, в пасмурную погоду, а также при ветре 12 м/с и более поправка равна нулю.
  • P - Атмосферное давление - приведенное к уровню моря атмосферное давление.
  • Po - Атмосферное давление - измеренное на уровне метеостанции атмосферное давление.
  • Tmin - Минимальная температура - минимум температуры воздуха на высоте 2 м над землей.
  • Tmax - Максимальная температура - максимум температуры воздуха на высоте 2 м над землей.
  • R - Количество осадков - Количество выпавших осадков за период времени, мм. При наведении курсора мыши на число - период времени, за который выпало указанное количество осадков.
  • R24 - Количество осадков - Количество выпавших осадков за 24 часа, мм.
  • S - Снежный покров - Высота снежного покрова, см. При наведении курсора мыши на число - состояние снежного покрова и степень покрытия местности в баллах.